ECHO 2 DEB (METAL OBJ), 742

Orbit data source: Space-Track

ECHO 2 DEB (METAL OBJ), 742 is space debris in LEO originally from a launch on Sat, 25 Jan 1964 UTC launched from the Air Force Western Test Range (AFWTR). Debris objects in space refer to the collection of defunct objects orbiting the Earth. Examples of debris include non-operational satellites, rocket bodies, and fragments generated from explosions, collisions, or faulty payload assembly.

Loading next visibility...
Identifier
742, 1964-004C
Orbit
LEO
Country
Flag of USUS
Related business
Manufacturer
Grummann
Mission
Spacecraft
Bus & Motor
ECHO CANISTER, Unknown motor
Mass
35 kg wet, 35 kg dry
Launch date (UTC)
1964-01-25 (62 years ago)
Launch vehicle
Unknown
Launch site
Air Force Western Test Range (AFWTR)
Object type
Payload
Rocket body
Debris
Shape & HBR
Unknown
Radar Cross Section
0.940 m², Medium (>0.1 m² and < 1m²)

Expand to show TLE details & history
Last TLE update: 19 hours ago

TLE from 19 hours ago
0 ECHO 2 DEB (METAL OBJ)
1 00742U 64004C   25242.09133357  .00000072  00000-0  12431-3 0  9996
2 00742  81.4656 294.1440 0173116 120.4847 241.3501 13.26242264978770
Epoch: 2025-08-30T02:11Z
TLE epoch observation values (Epoch: 2025-08-30T02:11:31.22Z)
Latitude
-0.00005°
Longitude
-77.2667°
Altitude
1,228.069 km
Speed
7.21 km/s
True Right ascension
19h 36m 34s
True Declination
0° 00' 00"
Sunlit
Object was in full shadow at epoch
Visualization orbit readout
Latitude
Unknown
Longitude
Unknown
Altitude
Unknown
Speed
Unknown
Apparent Right ascension
Unknown
Apparent Declination
Unknown
Sunlit
N/A
Visualization observer readout
Local Sidereal Time
12:30:00
Azimuth
Unknown
Elevation
Unknown
Doppler factor
Unknown
Orbital elements
Apogee altitude
1,288.714 km
Perigee altitude
1,027.78 km
Semi-major axis
7,536.384 km
Eccentricity
0.01731
Inclination
81.4656°
RAAN
294.144°
Arg. of periapsis
120.4847°
True anomaly
239.62736°
Mean anomaly
241.3501°
Eccentric anomaly
240.48692°
Mean motion
3.31741 °/min
Orbital period
108.52 mins
BSTAR
0.00012431
Loading maneuver chart data...
Computing Atmospheric mass density...
Loading historical data...
Loading historical data...
Loading historical data...
Loading historical data...
Loading historical data...
Loading historical data...
Loading historical data...

Documentation

Showing up to 5 results
|